Stations météo

Publicité
Carcassonne, France (7635): Température de l'air & dewpoint: 20.06.2017 07:00:00 - 26.06.2017 07:00:00 (CEST)Carcassonne, France (7635): Température de l'air 5cm: 20.06.2017 07:00:00 - 26.06.2017 07:00:00 (CEST)Carcassonne, France (7635): Température de l'air -20cm & Température de l'air -100cm: 20.06.2017 07:00:00 - 26.06.2017 07:00:00 (CEST)Carcassonne, France (7635): Vitesse du vent & gusts: 20.06.2017 07:00:00 - 26.06.2017 07:00:00 (CEST)Carcassonne, France (7635): Direction du vent: 20.06.2017 07:00:00 - 26.06.2017 07:00:00 (CEST)Carcassonne, France (7635): reduced air pressure: 20.06.2017 07:00:00 - 26.06.2017 07:00:00 (CEST)Carcassonne, France (7635): visibility: 20.06.2017 07:00:00 - 26.06.2017 07:00:00 (CEST)Carcassonne, France (7635): Ensoleillement: 20.06.2017 07:00:00 - 26.06.2017 07:00:00 (CEST)Carcassonne, France (7635): Quantités de précipitations: 20.06.2017 07:00:00 - 26.06.2017 07:00:00 (CEST)
Date & Time tt [°C] td [°C] tt 5cm [°C] tt -20cm [°C] tt -100cm [°C] ff [km/h] ff [knt] fx [km/h] fx [knt] dd ppp [hPa] vv [km] sd [min] rr [mm]
26.06.2017 07:00:00 19,4 16,8 17,8 29,5 24,3 3 1 10 6 ENE 1012,1 26 3 0,0
26.06.2017 06:00:00 19,2 16,4 18,4 29,8 24,3 4 2 10 5 S 1010,9 22 0 0,0
26.06.2017 05:00:00 19,6 17,0 18,8 30,1 24,3 0 0 17 9 N 1012,0 21 0 0,0
26.06.2017 04:00:00 19,2 17,0 18,1 30,4 24,3 7 4 10 6 W 1012,8 21 0 0,0
26.06.2017 03:00:00 19,0 16,6 17,9 30,7 24,3 0 0 6 3 N 1012,4 25 0 0,0
26.06.2017 02:00:00 19,4 16,8 17,9 31,0 24,3 3 1 8 4 SSW 1013,1 25 0 0,0
26.06.2017 01:00:00 19,9 16,9 18,3 31,3 24,3 0 0 9 5 N 1013,6 29 0 0,0
26.06.2017 00:00:00 21,5 17,3 19,5 31,6 24,3 4 2 15 8 S 1013,7 30 0 0,0
25.06.2017 23:00:00 22,3 17,0 20,7 31,9 24,3 9 5 19 10 SW 1013,7 34 0 0,0
25.06.2017 22:00:00 25,5 15,5 21,8 32,0 24,3 11 6 25 14 W 1014,3 24 0 0,0
25.06.2017 21:00:00 26,8 14,5 26,4 32,1 24,3 11 6 18 10 W 1014,5 49 0 0,0
25.06.2017 20:00:00 27,8 13,7 28,0 32,0 24,3 10 5 22 12 W 1014,0 53 27 0,0
25.06.2017 19:00:00 28,9 13,2 29,8 31,7 24,3 13 7 29 15 W 1014,1 30 45 0,0
25.06.2017 18:00:00 29,0 14,0 29,9 31,3 24,3 15 8 30 16 W 1014,1 16 55 0,0
25.06.2017 17:00:00 29,4 14,8 33,4 30,7 24,2 16 9 31 17 W 1014,9 14 60 0,0
25.06.2017 16:00:00 28,7 14,5 32,5 30,1 24,2 18 10 36 19 W 1015,8 15 60 0,0
25.06.2017 15:00:00 27,3 14,3 32,0 29,6 24,3 19 11 35 19 WNW 1016,6 17 60 0,0
25.06.2017 14:00:00 26,4 14,5 30,9 29,1 24,2 20 11 35 19 W 1017,6 19 60 0,0
25.06.2017 13:00:00 25,1 13,9 28,3 28,8 24,2 20 11 35 19 WNW 1018,6 20 60 0,0
25.06.2017 12:00:00 24,2 14,3 24,8 28,7 24,2 19 11 35 19 WNW 1019,0 28 21 0,0
25.06.2017 11:00:00 23,1 14,1 24,7 28,7 24,2 19 10 35 19 WNW 1019,2 28 22 0,0
25.06.2017 10:00:00 22,9 15,7 24,0 28,7 24,2 16 9 32 17 W 1018,7 18 60 0,0
25.06.2017 09:00:00 21,5 15,8 19,6 28,9 24,2 16 9 29 16 W 1019,2 19 25 0,0
25.06.2017 08:00:00 19,0 15,9 18,3 29,2 24,2 15 8 27 14 W 1019,0 25 0 0,0
25.06.2017 07:00:00 18,3 16,1 18,2 29,5 24,2 13 7 25 13 W 1018,3 17 0 0,0
25.06.2017 06:00:00 18,5 16,1 18,1 29,8 24,2 14 8 27 14 W 1018,9 21 0 0,0
25.06.2017 05:00:00 18,8 15,8 18,0 30,0 24,2 17 9 27 15 W 1019,0 22 0 0,0
25.06.2017 04:00:00 20,0 15,2 19,8 30,4 24,2 17 9 34 18 WNW 1019,7 35 0 0,0
25.06.2017 03:00:00 20,4 15,0 20,1 30,7 24,2 15 8 32 18 W 1020,1 40 0 0,0
25.06.2017 02:00:00 20,9 14,8 20,3 31,0 24,2 19 10 31 17 W 1020,3 46 0 0,0
25.06.2017 01:00:00 21,1 14,3 20,6 31,3 24,2 15 8 27 15 WNW 1020,3 57 0 0,0
25.06.2017 00:00:00 21,6 14,5 21,0 31,6 24,1 16 9 30 16 WNW 1020,3 60 0 0,0
24.06.2017 23:00:00 22,3 14,2 21,9 31,9 24,1 19 10 35 19 WNW 1019,9 60 0 0,0
24.06.2017 22:00:00 22,9 14,5 22,5 32,2 24,1 21 12 42 23 WNW 1019,0 60 10 0,0
24.06.2017 21:00:00 24,2 15,1 24,3 32,3 24,1 25 14 43 23 WNW 1018,4 36 52 0,0
24.06.2017 20:00:00 25,1 15,4 25,3 32,3 24,1 25 13 44 24 WNW 1018,0 31 21 0,0
24.06.2017 19:00:00 26,5 16,1 28,1 32,1 24,1 29 16 47 25 WNW 1017,5 11 60 0,0
24.06.2017 18:00:00 27,8 16,7 28,6 31,7 24,1 29 15 46 25 WNW 1017,3 10 35 0,0
24.06.2017 17:00:00 29,1 17,3 30,6 31,3 24,1 23 12 43 23 WNW 1017,2 10 47 0,0
24.06.2017 16:00:00 29,0 17,5 30,7 30,8 24,1 24 13 41 22 WNW 1017,5 12 55 0,0
24.06.2017 15:00:00 28,2 17,1 30,0 30,3 24,1 26 14 42 23 WNW 1017,7 14 58 0,0
24.06.2017 14:00:00 28,1 17,3 30,6 29,8 24,1 24 13 39 21 W 1018,3 14 53 0,0
24.06.2017 13:00:00 27,7 17,2 28,3 29,5 24,1 21 11 36 19 WNW 1018,5 17 52 0,0
24.06.2017 12:00:00 26,2 16,4 28,1 29,3 24,0 22 12 36 19 WNW 1019,0 19 38 0,0
24.06.2017 11:00:00 25,9 17,3 28,8 29,2 24,0 19 11 29 16 WNW 1019,1 21 56 0,0
24.06.2017 10:00:00 24,8 18,0 26,3 29,3 24,0 14 8 27 14 W 1019,6 24 60 0,0
24.06.2017 09:00:00 23,4 17,6 22,5 29,5 24,0 14 7 22 12 W 1020,3 26 19 0,0
24.06.2017 08:00:00 21,7 17,5 21,6 29,7 24,0 14 7 23 13 W 1020,8 34 0 0,0
24.06.2017 07:00:00 21,5 17,1 21,5 29,9 24,0 16 9 27 14 W 1020,9 35 0 0,0
24.06.2017 06:00:00 21,7 17,9 21,6 30,2 24,0 14 7 24 13 W 1021,2 33 0 0,0
24.06.2017 05:00:00 22,0 18,0 21,9 30,4 24,0 18 10 32 18 WNW 1021,2 34 0 0,0
24.06.2017 04:00:00 22,4 18,0 22,3 30,7 24,0 22 12 40 22 WNW 1021,3 34 0 0,0
24.06.2017 03:00:00 22,6 17,9 22,6 30,9 24,0 18 10 31 17 WNW 1021,5 42 0 0,0
24.06.2017 02:00:00 22,8 18,3 22,7 31,2 23,9 16 9 36 19 W 1021,9 43 0 0,0
24.06.2017 01:00:00 22,8 18,3 22,8 31,5 23,9 18 10 34 19 WNW 1022,1 46 0 0,0
24.06.2017 00:00:00 22,8 18,6 22,7 31,7 23,9 18 10 38 20 WNW 1022,1 39 0 0,0
23.06.2017 23:00:00 22,7 18,5 22,7 32,0 23,9 19 11 43 23 WNW 1021,9 34 0 0,0
23.06.2017 22:00:00 23,6 18,3 23,6 32,2 23,9 22 12 42 23 WNW 1021,2 41 0 0,0
23.06.2017 21:00:00 24,2 18,4 24,4 32,4 23,9 24 13 35 19 WNW 1020,8 44 0 0,0
23.06.2017 20:00:00 24,7 18,4 25,1 32,4 23,9 22 12 37 20 NW 1020,6 37 13 0,0
23.06.2017 19:00:00 25,2 18,2 25,7 32,2 23,9 25 14 43 23 NW 1020,3 42 25 0,0
23.06.2017 18:00:00 27,1 18,4 28,4 31,9 23,8 26 14 45 24 NW 1020,0 10 51 0,0
23.06.2017 17:00:00 27,9 18,6 29,0 31,4 23,8 26 14 42 23 NW 1020,2 11 57 0,0
23.06.2017 16:00:00 27,6 18,3 30,2 31,0 23,8 26 14 46 25 WNW 1020,2 12 47 0,0
23.06.2017 15:00:00 27,8 18,2 31,9 30,5 23,9 29 15 42 23 NW 1020,4 14 53 0,0
23.06.2017 14:00:00 28,0 18,4 30,3 30,1 23,8 25 13 41 22 WNW 1020,4 16 49 0,0
23.06.2017 13:00:00 27,3 18,6 28,6 29,8 23,8 22 12 40 22 WNW 1020,8 18 35 0,0
23.06.2017 12:00:00 26,6 18,7 28,3 29,6 23,8 21 12 35 19 W 1021,0 20 50 0,0
23.06.2017 11:00:00 25,5 19,2 26,6 29,6 23,7 20 11 34 18 WNW 1021,5 25 60 0,0
23.06.2017 10:00:00 23,5 18,4 25,1 29,7 23,8 24 13 36 19 WNW 1021,8 29 55 0,0
23.06.2017 09:00:00 22,9 18,0 22,7 29,8 23,7 24 13 42 23 WNW 1021,7 32 60 0,0
23.06.2017 08:00:00 21,7 18,3 21,3 30,1 23,7 22 12 37 20 W 1021,6 41 25 0,0
23.06.2017 07:00:00 21,0 18,6 21,1 30,4 23,7 21 11 34 19 W 1021,2 24 0 0,0
23.06.2017 06:00:00 21,3 19,0 21,3 30,6 23,7 19 10 37 20 W 1020,7 10 0 0,0
23.06.2017 05:00:00 22,3 18,7 21,9 30,9 23,7 19 10 37 20 WNW 1020,3 15 0 0,0
23.06.2017 04:00:00 22,2 18,6 21,9 31,3 23,7 23 12 42 23 W 1019,8 12 0 0,0
23.06.2017 03:00:00 22,5 18,7 22,2 31,6 23,6 24 13 49 27 W 1019,4 13 0 0,0
23.06.2017 02:00:00 24,4 19,9 21,8 31,9 23,6 21 11 36 19 W 1019,1 14 0 0,0
23.06.2017 01:00:00 23,1 19,9 21,0 32,3 23,6 2 1 14 8 NNW 1018,2 13 0 0,0
23.06.2017 00:00:00 23,3 19,7 21,1 32,6 23,6 4 2 9 5 E 1017,5 13 0 0,0
22.06.2017 23:00:00 25,6 19,7 23,8 32,8 23,6 5 3 23 13 E 1016,9 19 0 0,0
22.06.2017 22:00:00 27,7 19,0 27,3 33,0 23,6 14 8 23 13 E 1016,5 27 9 0,0
22.06.2017 21:00:00 29,7 19,1 29,9 33,1 23,6 18 10 29 16 E 1015,9 20 50 0,0
22.06.2017 20:00:00 31,6 19,9 32,6 33,0 23,6 21 11 29 16 E 1015,5 20 60 0,0
22.06.2017 19:00:00 33,0 20,2 35,9 32,8 23,6 18 10 31 17 E 1015,2 16 60 0,0
22.06.2017 18:00:00 33,7 20,8 37,2 32,3 23,6 19 10 36 19 E 1015,3 14 60 0,0
22.06.2017 17:00:00 33,8 20,6 38,1 31,7 23,5 22 12 36 20 E 1015,5 13 60 0,0
22.06.2017 16:00:00 34,6 20,2 39,1 31,1 23,5 19 11 30 16 E 1015,9 11 60 0,0
22.06.2017 15:00:00 33,8 20,9 37,9 30,5 23,5 19 11 32 17 E 1016,2 11 60 0,0
22.06.2017 14:00:00 31,6 20,5 - - - 15 8 34 18 E 1016,5 10 - -
22.06.2017 13:00:00 29,8 20,4 33,9 29,5 23,5 16 9 28 15 E 1017,2 9 60 0,0
22.06.2017 12:00:00 27,5 21,1 31,2 29,3 23,5 18 10 32 17 E 1017,6 8 60 0,0
22.06.2017 11:00:00 25,8 21,0 26,0 29,3 23,4 20 11 29 16 E 1017,6 8 49 0,0
22.06.2017 10:00:00 23,3 20,8 23,5 29,5 23,4 18 10 27 15 E 1017,9 7 0 0,0
22.06.2017 09:00:00 21,9 20,7 22,3 29,6 23,4 12 6 19 11 E 1017,3 3,7 0 0,0
22.06.2017 08:00:00 21,3 20,5 21,6 29,9 23,4 11 6 16 9 E 1017,1 1,9 0 0,0
22.06.2017 07:00:00 21,2 20,4 21,0 30,1 23,4 10 5 15 8 E 1016,7 3,5 0 0,0
22.06.2017 06:00:00 21,0 20,0 19,8 30,5 23,4 6 3 12 7 E 1016,5 4,0 0 0,0
22.06.2017 05:00:00 21,0 19,6 20,1 30,8 23,4 3 1 14 7 NE 1016,2 4,7 0 0,0
22.06.2017 04:00:00 21,7 20,3 21,0 31,1 23,4 8 4 16 8 E 1016,3 6 0 0,0
22.06.2017 03:00:00 22,3 20,2 21,7 31,4 23,4 11 6 16 9 E 1016,4 9 0 0,0
22.06.2017 02:00:00 22,5 20,0 21,8 31,8 23,4 4 2 18 10 ENE 1016,3 11 0 0,0
22.06.2017 01:00:00 23,5 20,0 23,2 32,1 23,3 11 6 21 12 E 1016,6 14 0 0,0
22.06.2017 00:00:00 24,1 20,0 23,8 32,4 23,3 13 7 20 11 E 1016,2 16 0 0,0
21.06.2017 23:00:00 25,5 19,6 25,2 32,7 23,3 14 8 29 16 E 1016,2 20 0 0,0
21.06.2017 22:00:00 27,0 18,8 26,7 32,9 23,3 14 8 25 14 E 1015,3 26 9 0,0
21.06.2017 21:00:00 28,9 19,5 29,3 32,9 23,3 16 9 31 17 E 1014,7 29 60 0,0
21.06.2017 20:00:00 31,6 19,3 32,6 32,8 23,3 10 5 34 18 E 1014,2 37 60 0,0
21.06.2017 19:00:00 33,3 19,0 34,8 32,4 23,3 23 12 32 17 E 1013,2 39 53 0,0
21.06.2017 18:00:00 35,6 19,1 40,3 32,0 23,3 16 8 26 14 ENE 1013,0 37 60 0,0
21.06.2017 17:00:00 35,1 18,6 37,0 31,5 23,3 13 7 24 13 ENE 1013,2 19 35 0,0
21.06.2017 16:00:00 35,4 17,6 38,3 30,8 23,3 6 3 22 12 E 1013,2 20 37 0,0
21.06.2017 15:00:00 35,3 17,5 40,0 30,0 23,3 9 5 21 11 E 1013,6 25 60 0,0
21.06.2017 14:00:00 33,3 19,4 38,8 29,4 23,3 8 4 19 10 ENE 1014,6 19 60 0,0
21.06.2017 13:00:00 31,6 20,2 37,2 28,9 23,2 8 5 19 10 ENE 1015,2 18 60 0,0
21.06.2017 12:00:00 29,5 20,4 33,1 28,5 23,2 5 3 15 8 ENE 1015,9 14 60 0,0
21.06.2017 11:00:00 27,0 19,9 30,4 28,4 23,2 9 5 16 9 E 1016,2 11 60 0,0
21.06.2017 10:00:00 25,6 20,2 27,7 28,4 23,2 9 5 18 10 E 1016,2 11 60 0,0
21.06.2017 09:00:00 23,9 20,0 23,3 28,6 23,2 9 5 16 8 E 1016,4 10 21 0,0
21.06.2017 08:00:00 22,2 19,7 22,0 28,7 23,2 9 5 15 8 E 1016,3 11 0 0,0
21.06.2017 07:00:00 21,6 19,7 21,6 28,9 23,2 10 5 19 11 E 1016,1 9 0 0,0
21.06.2017 06:00:00 21,5 19,8 21,5 29,2 23,2 13 7 18 10 E 1016,0 8 0 0,0
21.06.2017 05:00:00 21,4 20,0 20,9 29,4 23,1 8 5 17 9 E 1015,7 7 0 0,0
21.06.2017 04:00:00 21,1 19,9 20,6 29,7 23,2 11 6 15 8 E 1016,1 6 0 0,0
21.06.2017 03:00:00 21,3 19,8 20,8 30,0 23,2 6 4 11 6 E 1016,3 8 0 0,0
21.06.2017 02:00:00 21,4 19,3 20,9 30,3 23,1 8 4 11 6 E 1016,7 11 0 0,0
21.06.2017 01:00:00 22,0 19,4 21,7 30,6 23,1 9 5 14 8 E 1017,2 13 0 0,0
21.06.2017 00:00:00 22,8 19,6 22,5 30,9 23,1 9 5 13 7 ENE 1017,1 15 0 0,0
20.06.2017 23:00:00 23,3 19,5 22,9 31,2 23,1 9 5 24 13 E 1017,0 18 0 0,0
20.06.2017 22:00:00 24,6 19,9 24,3 31,4 23,1 16 9 28 15 E 1016,1 19 0 0,0
20.06.2017 21:00:00 25,5 19,9 25,7 31,5 23,1 20 11 32 17 E 1016,1 22 0 0,0
20.06.2017 20:00:00 27,2 20,3 27,8 31,5 23,1 22 12 30 16 E 1015,8 20 0 0,0
20.06.2017 19:00:00 28,0 20,3 - - - 21 11 31 17 E 1015,9 35 - 0,0
20.06.2017 18:00:00 29,3 19,9 30,7 31,0 23,1 18 10 31 17 E 1015,8 33 2 0,0
20.06.2017 17:00:00 30,6 19,0 32,7 30,5 23,1 23 12 35 19 E 1016,2 16 41 0,0
20.06.2017 16:00:00 30,4 19,7 34,5 29,9 23,1 17 9 39 21 ESE 1016,6 15 60 0,0
20.06.2017 15:00:00 29,4 19,7 33,1 29,3 23,0 22 12 41 22 E 1016,7 16 60 0,0
20.06.2017 14:00:00 28,0 19,2 32,5 28,7 23,0 24 13 37 20 E 1017,6 18 60 0,0
20.06.2017 13:00:00 27,1 18,9 31,3 28,3 23,0 20 11 39 21 E 1018,4 20 60 0,0
20.06.2017 12:00:00 25,7 19,1 29,5 28,1 23,0 19 10 33 18 E 1019,0 22 60 0,0
20.06.2017 11:00:00 24,8 19,2 25,4 28,1 23,0 17 9 27 15 E 1018,9 20 24 0,0
20.06.2017 10:00:00 22,9 18,7 23,0 28,2 23,0 13 7 24 13 E 1019,0 30 0 0,0
20.06.2017 09:00:00 21,9 18,3 22,1 28,4 23,0 11 6 29 16 ESE 1018,7 27 0 0,0
20.06.2017 08:00:00 21,4 18,8 21,6 28,6 23,0 14 8 28 15 E 1018,4 19 0 0,0
20.06.2017 07:00:00 21,4 18,8 21,3 28,8 23,0 14 8 25 13 E 1018,3 19 0 0,0

tt = Température de l'air
td = dewpoint
tt 5cm = Température de l'air 5cm
tt -20cm = Température de l'air -20cm
tt -100cm = Température de l'air -100cm
ff = Vitesse du vent
fx = gusts
dd = Direction du vent
ppp = reduced air pressure
vv = visibility
sd = Ensoleillement
rr = Quantités de précipitations

stations d'obs. à proximité